GW5470 Weather Reports


time (UTC)temp
C
wind
direction
speed
KPH
gust
KPH
rain 1hr
cm
rain 24hr
cm
rain mn
cm
humidity
%
barometer
mb
20260831215942 30 200 0.0 0.0 0.00 0.00 0.00 82 1018.4
20260831215437 31 200 0.0 0.0 0.00 0.00 0.00 80 1018.6
20260831214934 30 200 0.0 0.0 0.00 0.00 0.00 80 1018.4
20260831214431 29 200 0.0 0.0 0.00 0.00 0.00 82 1018.5
20260831213926 28 200 0.0 0.0 0.00 0.00 0.00 83 1018.6
20260831213423 28 200 0.0 0.0 0.00 0.00 0.00 81 1018.9
20260831212923 29 200 0.0 0.0 0.00 0.00 0.00 83 1018.7
20260831212419 29 200 0.0 0.0 0.00 0.00 0.00 83 1018.8
20260831211918 30 200 0.0 0.0 0.00 0.00 0.00 80 1018.7
20260831211414 30 200 0.0 0.0 0.00 0.00 0.00 78 1018.8
20260831210913 30 200 0.0 0.0 0.00 0.00 0.00 79 1018.7
20260831210409 30 200 0.0 0.0 0.00 0.00 0.00 80 1018.9
20260831205904 30 199 0.0 0.0 0.00 0.00 0.00 78 1018.9
20260831205400 30 200 0.0 0.0 0.00 0.00 0.00 79 1018.8
20260831204855 30 216 1.6 1.6 0.00 0.00 0.00 78 1019.1
20260831204354 30 215 0.0 0.0 0.00 0.00 0.00 74 1019.0
20260831203854 31 216 0.0 1.6 0.00 0.00 0.00 74 1018.9
20260831203349 31 216 1.6 1.6 0.00 0.00 0.00 72 1018.9
20260831202847 32 200 0.0 0.0 0.00 0.00 0.00 63 1018.9
20260831202342 32 194 0.0 0.0 0.00 0.00 0.00 69 1019.0
20260831201841 32 167 1.6 1.6 0.00 0.00 0.00 68 1019.0
20260831201340 31 176 1.6 1.6 0.00 0.00 0.00 66 1019.1
20260831200836 30 205 0.0 0.0 0.00 0.00 0.00 75 1019.2
20260831200331 30 210 0.0 0.0 0.00 0.00 0.00 75 1019.2
20260831195826 30 194 0.0 0.0 0.00 0.00 0.00 71 1019.1
20260831195322 31 210 0.0 0.0 0.00 0.00 0.00 70 1019.2
20260831194818 31 193 0.0 0.0 0.00 0.00 0.00 66 1019.3
20260831194313 31 204 0.0 0.0 0.00 0.00 0.00 68 1019.2
20260831193811 30 210 1.6 1.6 0.00 0.00 0.00 69 1019.5
20260831193307 30 214 1.6 3.2 0.00 0.00 0.00 70 1019.5
20260831192802 30 208 0.0 0.0 0.00 0.00 0.00 74 1019.5
20260831192257 30 191 0.0 1.6 0.00 0.00 0.00 69 1019.7
20260831191753 30 196 0.0 0.0 0.00 0.00 0.00 72 1019.7
20260831191249 30 206 0.0 0.0 0.00 0.00 0.00 71 1019.5
20260831190745 30 198 0.0 0.0 0.00 0.00 0.00 70 1019.9
20260831190244 31 201 1.6 1.6 0.00 0.00 0.00 66 1019.8
20260831185738 31 218 0.0 1.6 0.00 0.00 0.00 66 1019.8
20260831185234 31 59 1.6 3.2 0.00 0.00 0.00 63 1019.7
20260831184733 31 148 1.6 1.6 0.00 0.00 0.00 63 1019.8
20260831184229 32 45 8.0 9.7 0.00 0.00 0.00 60 1019.8
20260831183729 31 197 0.0 0.0 0.00 0.00 0.00 64 1019.7
20260831183224 31 189 0.0 0.0 0.00 0.00 0.00 65 1019.9
20260831182723 32 186 0.0 0.0 0.00 0.00 0.00 61 1020.0
20260831182219 32 201 0.0 0.0 0.00 0.00 0.00 62 1020.1
20260831181718 32 189 3.2 4.8 0.00 0.00 0.00 58 1020.1
20260831181214 32 255 4.8 4.8 0.00 0.00 0.00 59 1020.0
20260831180709 33 221 1.6 1.6 0.00 0.00 0.00 56 1020.1
20260831180204 33 211 1.6 3.2 0.00 0.00 0.00 58 1020.0
20260831175703 33 267 1.6 3.2 0.00 0.00 0.00 57 1020.0
20260831175200 33 190 0.0 1.6 0.00 0.00 0.00 57 1020.1
20260831174659 33 179 3.2 4.8 0.00 0.00 0.00 62 1020.2
20260831174154 33 179 1.6 1.6 0.00 0.00 0.00 62 1020.2
20260831173653 33 199 3.2 4.8 0.00 0.00 0.00 61 1019.9
20260831173149 32 154 1.6 1.6 0.00 0.00 0.00 61 1020.1
20260831172649 32 202 1.6 1.6 0.00 0.00 0.00 63 1020.0
20260831172144 32 111 3.2 4.8 0.00 0.00 0.00 65 1020.1
20260831171638 31 125 1.6 1.6 0.00 0.00 0.00 65 1020.2
20260831171136 32 164 1.6 3.2 0.00 0.00 0.00 65 1020.3
20260831170632 31 170 1.6 1.6 0.00 0.00 0.00 65 1020.4
20260831170129 31 191 1.6 1.6 0.00 0.00 0.00 64 1020.4
20260831165624 31 256 4.8 6.4 0.00 0.00 0.00 64 1020.2
20260831165121 31 114 1.6 1.6 0.00 0.00 0.00 68 1020.1
20260831164617 31 185 0.0 1.6 0.00 0.00 0.00 68 1020.4
20260831164112 31 137 3.2 3.2 0.00 0.00 0.00 67 1020.5
20260831163607 31 219 3.2 3.2 0.00 0.00 0.00 68 1020.5
20260831163102 31 127 1.6 1.6 0.00 0.00 0.00 69 1020.4
20260831162601 31 122 3.2 4.8 0.00 0.00 0.00 70 1020.4
20260831162059 30 197 0.0 1.6 0.00 0.00 0.00 73 1020.5
20260831161555 30 174 0.0 1.6 0.00 0.00 0.00 74 1020.5
20260831161052 30 160 1.6 1.6 0.00 0.00 0.00 74 1020.5
20260831160551 29 256 3.2 4.8 0.00 0.00 0.00 76 1020.5
20260831160047 29 198 1.6 1.6 0.00 0.00 0.00 73 1020.5
20260831155541 29 229 3.2 4.8 0.00 0.00 0.00 73 1020.7
20260831155036 28 187 0.0 1.6 0.00 0.00 0.00 76 1020.6
20260831154532 28 186 1.6 3.2 0.00 0.00 0.00 78 1020.6
20260831154032 28 204 1.6 3.2 0.00 0.00 0.00 76 1020.5
20260831153532 29 182 0.0 0.0 0.00 0.00 0.00 77 1020.6
20260831153029 28 183 1.6 1.6 0.00 0.00 0.00 78 1020.7
20260831152524 28 240 3.2 3.2 0.00 0.00 0.00 76 1020.4
20260831152020 27 185 0.0 0.0 0.00 0.00 0.00 80 1020.5
20260831151519 26 188 0.0 0.0 0.00 0.00 0.00 84 1020.7
20260831151019 26 191 0.0 0.0 0.00 0.00 0.00 85 1020.5
20260831150514 26 165 3.2 3.2 0.00 0.00 0.00 84 1020.6
20260831150010 25 162 0.0 0.0 0.00 0.00 0.00 88 1020.8
20260831145504 25 196 0.0 1.6 0.00 0.00 0.00 92 1020.8
20260831145000 23 178 1.6 3.2 0.00 0.00 0.00 93 1020.6
20260831144456 23 195 0.0 0.0 0.00 0.00 0.00 96 1020.7
20260831143951 23 195 0.0 1.6 0.00 0.00 0.00 98 1020.6
20260831143446 23 203 0.0 0.0 0.00 0.00 0.00 99 1020.7
20260831142941 22 203 0.0 0.0 0.00 0.00 0.00 99 1020.7
20260831142438 22 204 0.0 0.0 0.00 0.00 0.00 99 1020.5
20260831141932 22 209 0.0 0.0 0.00 0.00 0.00 99 1020.6
20260831141426 22 209 0.0 0.0 0.00 0.00 0.00 99 1020.6
20260831140921 22 210 0.0 0.0 0.00 0.00 0.00 99 1020.6
20260831140416 22 210 0.0 0.0 0.00 0.00 0.00 99 1020.8
20260831135915 22 210 0.0 0.0 0.00 0.00 0.00 99 1020.8
20260831135414 22 210 0.0 0.0 0.00 0.00 0.00 99 1020.7
20260831134909 21 210 0.0 0.0 0.00 0.00 0.00 99 1020.6
20260831134406 21 210 0.0 0.0 0.00 0.00 0.00 99 1020.9
20260831133905 21 210 0.0 0.0 0.00 0.00 0.00 99 1020.7
20260831133400 21 210 0.0 0.0 0.00 0.00 0.00 99 1020.8
20260831132855 21 210 0.0 0.0 0.00 0.00 0.00 99 1020.9
20260831132350 21 210 0.0 0.0 0.00 0.00 0.00 99 1020.7
20260831131849 21 210 0.0 0.0 0.00 0.00 0.00 99 1020.8
20260831131345 21 210 0.0 0.0 0.00 0.00 0.00 99 1020.7
20260831130841 21 210 0.0 0.0 0.00 0.00 0.00 99 1020.7
20260831130336 21 210 0.0 0.0 0.00 0.00 0.00 99 1020.8
20260831125835 21 210 0.0 0.0 0.00 0.00 0.00 99 1020.7
20260831125331 20 210 0.0 0.0 0.00 0.00 0.00 99 1020.7
20260831124831 20 210 0.0 0.0 0.00 0.00 0.00 99 1020.7
20260831124327 20 210 0.0 0.0 0.00 0.00 0.00 99 1020.6
20260831123827 20 210 0.0 0.0 0.00 0.00 0.00 99 1020.7
20260831123325 20 210 0.0 0.0 0.00 0.00 0.00 99 1020.8
20260831122820 20 210 0.0 0.0 0.00 0.00 0.00 99 1020.4
20260831122316 20 210 0.0 0.0 0.00 0.00 0.00 99 1020.4
20260831121816 20 210 0.0 0.0 0.00 0.00 0.00 99 1020.4
20260831121312 20 210 0.0 0.0 0.00 0.00 0.00 99 1020.5
20260831120807 20 210 0.0 0.0 0.00 0.00 0.00 99 1020.5
20260831120302 20 210 0.0 0.0 0.00 0.00 0.00 99 1020.4
20260831115757 20 210 0.0 0.0 0.00 0.00 0.00 99 1020.4
20260831115253 20 210 0.0 0.0 0.00 0.00 0.00 99 1020.3
20260831114752 20 210 0.0 0.0 0.00 0.00 0.00 99 1020.3
20260831114247 20 210 0.0 0.0 0.00 0.00 0.00 99 1020.3
20260831113743 20 210 0.0 0.0 0.00 0.00 0.00 99 1020.2
20260831113242 20 210 0.0 0.0 0.00 0.00 0.00 99 1019.9
20260831112742 20 210 0.0 0.0 0.00 0.00 0.00 99 1020.1
20260831112237 20 210 0.0 0.0 0.00 0.00 0.00 99 1019.9
20260831111732 20 210 0.0 0.0 0.00 0.00 0.00 99 1020.1
20260831111229 20 210 0.0 0.0 0.00 0.00 0.00 99 1020.2
20260831110724 20 210 0.0 0.0 0.00 0.00 0.00 99 1020.1
20260831110219 20 210 0.0 0.0 0.00 0.00 0.00 99 1020.2
20260831105717 20 210 0.0 0.0 0.00 0.00 0.00 99 1020.2
20260831105214 20 210 0.0 0.0 0.00 0.00 0.00 99 1020.0
20260831104708 20 210 0.0 0.0 0.00 0.00 0.00 99 1019.9
20260831104205 20 210 0.0 0.0 0.00 0.00 0.00 99 1019.9
20260831103705 20 210 0.0 0.0 0.00 0.00 0.00 99 1019.7
20260831103200 20 210 0.0 0.0 0.00 0.00 0.00 99 1019.9
20260831102701 20 210 0.0 0.0 0.00 0.00 0.00 99 1019.9
20260831102201 20 210 0.0 0.0 0.00 0.00 0.00 99 1019.8
20260831101656 20 210 0.0 0.0 0.00 0.00 0.00 99 1019.7
20260831101152 20 210 0.0 0.0 0.00 0.00 0.00 99 1019.7
20260831100648 20 210 0.0 0.0 0.00 0.00 0.00 99 1019.7
20260831100144 20 210 0.0 0.0 0.00 0.00 0.00 99 1019.5
20260831095641 20 210 0.0 0.0 0.00 0.00 0.00 99 1019.8
20260831095137 20 210 0.0 0.0 0.00 0.00 0.00 99 1019.7
20260831094632 20 210 0.0 0.0 0.00 0.00 0.00 99 1019.7
20260831094128 20 210 0.0 0.0 0.00 0.00 0.00 99 1019.4
20260831093623 20 210 0.0 0.0 0.00 0.00 0.00 99 1019.5
20260831093119 20 210 0.0 0.0 0.00 0.00 0.00 99 1019.5
20260831092615 20 210 0.0 0.0 0.00 0.00 0.00 99 1019.7
20260831092111 20 210 0.0 0.0 0.00 0.00 0.00 99 1019.5
20260831091610 20 210 0.0 0.0 0.00 0.00 0.00 99 1019.3
20260831091106 20 210 0.0 0.0 0.00 0.00 0.00 99 1019.7
20260831090601 19 210 0.0 0.0 0.00 0.00 0.00 99 1019.5
20260831090057 19 210 0.0 0.0 0.00 0.00 0.00 99 1019.8
20260831085552 19 210 0.0 0.0 0.00 0.00 0.00 99 1019.4
20260831085048 19 210 0.0 0.0 0.00 0.00 0.00 99 1019.5
20260831084544 19 210 0.0 0.0 0.00 0.00 0.00 99 1019.4
20260831084040 19 210 0.0 0.0 0.00 0.00 0.00 99 1019.5
20260831083535 19 210 0.0 0.0 0.00 0.00 0.00 99 1019.5
20260831083030 19 210 0.0 0.0 0.00 0.00 0.00 99 1019.8
20260831082529 19 210 0.0 0.0 0.00 0.00 0.00 99 1019.7
20260831082025 19 210 0.0 0.0 0.00 0.00 0.00 99 1019.4
20260831081520 19 210 0.0 0.0 0.00 0.00 0.00 99 1019.5
20260831081017 19 210 0.0 0.0 0.00 0.00 0.00 99 1019.2
20260831080516 19 210 0.0 0.0 0.00 0.00 0.00 99 1019.2
20260831080012 19 210 0.0 0.0 0.00 0.00 0.00 99 1019.4
20260831075507 19 210 0.0 0.0 0.00 0.00 0.00 99 1019.4
20260831075003 19 210 0.0 0.0 0.00 0.00 0.00 99 1019.3
20260831074502 19 210 0.0 0.0 0.00 0.00 0.00 99 1019.4
20260831073956 20 210 0.0 0.0 0.00 0.00 0.00 99 1019.4
20260831073456 19 210 0.0 0.0 0.00 0.00 0.00 99 1019.7
20260831072955 20 210 0.0 0.0 0.00 0.00 0.00 99 1019.4
20260831072451 20 210 0.0 0.0 0.00 0.00 0.00 99 1019.4
20260831071948 20 210 0.0 0.0 0.00 0.00 0.00 99 1019.5
20260831071446 20 210 0.0 0.0 0.00 0.00 0.00 99 1019.7
20260831070941 20 210 0.0 0.0 0.00 0.00 0.00 99 1019.7
20260831070441 20 210 0.0 0.0 0.00 0.00 0.00 99 1019.8
20260831065940 20 210 0.0 0.0 0.00 0.00 0.00 99 1019.7
20260831065438 20 210 0.0 0.0 0.00 0.00 0.00 99 1019.7
20260831064933 20 210 0.0 0.0 0.00 0.00 0.00 99 1019.7
20260831064428 20 210 0.0 0.0 0.00 0.00 0.00 99 1019.5
20260831063925 20 210 0.0 0.0 0.00 0.00 0.00 99 1019.5
20260831063420 20 210 0.0 0.0 0.00 0.00 0.00 99 1019.7
20260831062914 20 210 0.0 0.0 0.00 0.00 0.00 99 1019.7
20260831062410 20 210 0.0 0.0 0.00 0.00 0.00 99 1019.5
20260831061908 20 210 0.0 0.0 0.00 0.00 0.00 99 1019.9
20260831061407 20 210 0.0 0.0 0.00 0.00 0.00 99 1019.9
20260831060904 20 210 0.0 0.0 0.00 0.00 0.00 99 1019.9
20260831060403 20 210 0.0 0.0 0.00 0.00 0.00 99 1019.8
20260831055903 20 210 0.0 0.0 0.00 0.00 0.00 99 1019.9
20260831055358 20 210 0.0 0.0 0.00 0.00 0.00 99 1020.0
20260831054853 20 210 0.0 0.0 0.00 0.00 0.00 99 1019.9
20260831054348 20 210 0.0 0.0 0.00 0.00 0.00 99 1019.9
20260831053847 20 210 0.0 0.0 0.00 0.00 0.00 99 1020.0
20260831053346 21 210 0.0 0.0 0.00 0.00 0.00 99 1020.1
20260831052840 21 210 0.0 0.0 0.00 0.00 0.00 99 1019.9
20260831052340 20 210 0.0 0.0 0.00 0.00 0.00 99 1019.8
20260831051838 20 210 0.0 0.0 0.00 0.00 0.00 99 1020.0
20260831051337 21 210 0.0 0.0 0.00 0.00 0.00 99 1019.9
20260831050832 21 210 0.0 0.0 0.00 0.00 0.00 99 1019.9
20260831050331 21 210 0.0 0.0 0.00 0.00 0.00 99 1020.1
20260831045826 21 210 0.0 0.0 0.00 0.00 0.00 99 1020.0
20260831045325 21 210 0.0 0.0 0.00 0.00 0.00 99 1020.0
20260831044821 21 210 0.0 0.0 0.00 0.00 0.00 99 1019.9
20260831044316 21 210 0.0 0.0 0.00 0.00 0.00 99 1019.7
20260831043812 21 210 0.0 0.0 0.00 0.00 0.00 99 1019.9
20260831043311 21 210 0.0 0.0 0.00 0.00 0.00 99 1019.9
20260831042807 21 210 0.0 0.0 0.00 0.00 0.00 99 1019.9
20260831042307 21 210 0.0 0.0 0.00 0.00 0.00 99 1020.1
20260831041802 21 210 0.0 0.0 0.00 0.00 0.00 99 1020.1
20260831041301 21 210 0.0 0.0 0.00 0.00 0.00 99 1020.2
20260831040756 21 210 0.0 0.0 0.00 0.00 0.00 99 1020.2
20260831040255 21 210 0.0 0.0 0.00 0.00 0.00 99 1020.0
20260831035754 21 210 0.0 0.0 0.00 0.00 0.00 99 1020.0
20260831035253 21 210 0.0 0.0 0.00 0.00 0.00 98 1019.9
20260831034753 21 210 0.0 0.0 0.00 0.00 0.00 98 1020.2
20260831034248 22 210 0.0 0.0 0.00 0.00 0.00 98 1020.2
20260831033743 22 210 0.0 0.0 0.00 0.00 0.00 98 1020.3
20260831033243 22 210 0.0 0.0 0.00 0.00 0.00 98 1020.3
20260831032738 22 210 0.0 0.0 0.00 0.00 0.00 98 1020.2
20260831032233 22 210 0.0 0.0 0.00 0.00 0.00 98 1020.2
20260831031728 22 210 0.0 0.0 0.00 0.00 0.00 98 1020.2
20260831031228 22 210 0.0 0.0 0.00 0.00 0.00 98 1020.6
20260831030728 22 210 0.0 0.0 0.00 0.00 0.00 98 1020.6
20260831030226 22 210 0.0 0.0 0.00 0.00 0.00 98 1020.7
20260831025725 22 210 0.0 0.0 0.00 0.00 0.00 98 1020.5
20260831025220 22 210 0.0 0.0 0.00 0.00 0.00 98 1020.5
20260831024716 22 210 0.0 0.0 0.00 0.00 0.00 98 1020.5
20260831024209 22 210 0.0 0.0 0.00 0.00 0.00 98 1020.4
20260831023707 22 210 0.0 0.0 0.00 0.00 0.00 97 1020.5
20260831023201 22 210 0.0 0.0 0.00 0.00 0.00 97 1020.5
20260831022656 22 210 0.0 0.0 0.00 0.00 0.00 97 1020.3
20260831022151 22 210 0.0 0.0 0.00 0.00 0.00 97 1020.5
20260831021650 22 210 0.0 0.0 0.00 0.00 0.00 97 1020.6
20260831021145 22 210 0.0 0.0 0.00 0.00 0.00 97 1020.5
20260831020641 22 210 0.0 0.0 0.00 0.00 0.00 97 1020.6
20260831020136 22 210 0.0 0.0 0.00 0.00 0.00 97 1020.6
20260831015632 23 210 0.0 0.0 0.00 0.00 0.00 97 1020.6
20260831015131 22 210 0.0 0.0 0.00 0.00 0.00 97 1020.5
20260831014626 22 210 0.0 0.0 0.00 0.00 0.00 97 1020.6
20260831014121 23 210 0.0 0.0 0.00 0.00 0.00 97 1020.4
20260831013618 23 210 0.0 0.0 0.00 0.00 0.00 97 1020.2
20260831013117 23 210 0.0 0.0 0.00 0.00 0.00 97 1020.2
20260831012612 23 210 0.0 0.0 0.00 0.00 0.00 97 1020.1
20260831012107 23 210 0.0 0.0 0.00 0.00 0.00 97 1020.0
20260831011607 23 210 0.0 0.0 0.00 0.00 0.00 97 1020.1
20260831011102 23 210 0.0 0.0 0.00 0.00 0.00 97 1019.9
20260831010558 23 210 0.0 0.0 0.00 0.00 0.00 96 1019.8
20260831010054 23 210 0.0 0.0 0.00 0.00 0.00 96 1019.8
20260831005548 23 210 0.0 0.0 0.00 0.00 0.00 96 1019.5
20260831005048 23 210 0.0 0.0 0.00 0.00 0.00 96 1019.8
20260831004544 23 210 0.0 0.0 0.00 0.00 0.00 95 1019.8
20260831004040 23 210 0.0 0.0 0.00 0.00 0.00 95 1019.5
20260831003536 23 210 0.0 0.0 0.00 0.00 0.00 95 1019.7
20260831003031 23 210 0.0 0.0 0.00 0.00 0.00 94 1019.5
20260831002530 23 210 0.0 0.0 0.00 0.00 0.00 94 1019.4
20260831002025 24 210 0.0 0.0 0.00 0.00 0.00 94 1019.3
20260831001521 24 210 0.0 0.0 0.00 0.00 0.00 93 1019.3
20260831001017 24 210 0.0 0.0 0.00 0.00 0.00 92 1019.2
20260831000514 24 210 0.0 0.0 0.00 0.00 0.00 92 1019.2
20260831000012 25 210 0.0 0.0 0.00 0.00 0.00 92 1019.1
20260830235506 25 210 0.0 0.0 0.00 0.00 0.00 91 1019.1
20260830235001 25 210 0.0 0.0 0.00 0.00 0.00 90 1019.0
20260830234456 25 210 0.0 0.0 0.00 0.00 0.00 90 1019.0
20260830233951 25 210 0.0 0.0 0.00 0.00 0.00 89 1018.9
20260830233447 25 210 0.0 0.0 0.00 0.00 0.00 89 1019.0
20260830232943 25 210 0.0 0.0 0.00 0.00 0.00 89 1018.9
20260830232438 25 210 0.0 0.0 0.00 0.00 0.00 89 1018.9
20260830231935 25 210 0.0 0.0 0.00 0.00 0.00 88 1019.1
20260830231430 25 210 0.0 0.0 0.00 0.00 0.00 87 1018.9
20260830230929 26 210 0.0 0.0 0.00 0.00 0.00 86 1018.8
20260830230425 26 210 0.0 0.0 0.00 0.00 0.00 85 1018.9
20260830225924 26 210 0.0 0.0 0.00 0.00 0.00 84 1018.9
20260830225420 26 210 0.0 0.0 0.00 0.00 0.00 84 1018.8
20260830224919 26 210 0.0 0.0 0.00 0.00 0.00 83 1018.7
20260830224418 26 210 0.0 0.0 0.00 0.00 0.00 83 1018.7
20260830223915 26 210 0.0 0.0 0.00 0.00 0.00 82 1018.6
20260830223412 26 210 0.0 0.0 0.00 0.00 0.00 82 1018.9
20260830222910 26 210 0.0 0.0 0.00 0.00 0.00 84 1018.8
20260830222406 26 210 0.0 0.0 0.00 0.00 0.00 81 1018.7
20260830221901 27 210 0.0 0.0 0.00 0.00 0.00 82 1018.6
20260830221358 27 210 0.0 0.0 0.00 0.00 0.00 82 1018.5
20260830220853 27 210 0.0 0.0 0.00 0.00 0.00 80 1018.5
20260830220353 27 210 0.0 0.0 0.00 0.00 0.00 77 1018.3